Time,TemperatureF,DewpointF,PressureIn,WindDirection,WindDirectionDegrees,WindSpeedMPH,WindSpeedGustMPH,Humidity,HourlyPrecipIn,Conditions,Clouds,dailyrainin,SoftwareType,DateUTC
2013-02-17 00:02:00,29.0,15.0,30.20,NNW,338,4.0,6.0,55,0.00,,,0.00,,2013-02-17 06:02:00,
2013-02-17 00:11:00,29.0,15.0,30.20,NNW,338,4.0,6.0,55,0.00,,,0.00,,2013-02-17 06:11:00,
2013-02-17 00:21:00,29.0,15.0,30.20,NW,313,3.0,6.0,56,0.00,,,0.00,,2013-02-17 06:21:00,
2013-02-17 00:31:00,29.0,15.0,30.20,NNW,346,6.0,7.0,56,0.00,,,0.00,,2013-02-17 06:31:00,
2013-02-17 00:41:00,29.0,15.0,30.20,NNW,346,6.0,7.0,56,0.00,,,0.00,,2013-02-17 06:41:00,
2013-02-17 00:52:00,29.0,16.0,30.20,North,356,6.0,7.0,57,0.00,,,0.00,,2013-02-17 06:52:00,
2013-02-17 01:01:00,29.0,15.0,30.21,NW,304,7.0,8.0,56,0.00,,,0.00,,2013-02-17 07:01:00,
2013-02-17 01:11:00,29.0,15.0,30.21,NNW,343,5.0,6.0,56,0.00,,,0.00,,2013-02-17 07:11:00,
2013-02-17 01:21:00,29.0,15.0,30.21,NNW,343,5.0,6.0,56,0.00,,,0.00,,2013-02-17 07:21:00,
2013-02-17 01:31:00,28.0,15.0,30.22,NNW,336,5.0,7.0,57,0.00,,,0.00,,2013-02-17 07:31:00,
2013-02-17 01:41:00,28.0,15.0,30.22,NNW,336,5.0,7.0,57,0.00,,,0.00,,2013-02-17 07:41:00,
2013-02-17 01:52:00,28.0,15.0,30.21,NW,321,2.0,6.0,58,0.00,,,0.00,,2013-02-17 07:52:00,
2013-02-17 02:01:00,28.0,15.0,30.20,NW,310,1.0,5.0,58,0.00,,,0.00,,2013-02-17 08:01:00,
2013-02-17 02:11:00,28.0,15.0,30.20,NW,310,1.0,5.0,58,0.00,,,0.00,,2013-02-17 08:11:00,
2013-02-17 02:21:00,27.0,15.0,30.20,WNW,301,0.0,3.0,59,0.00,,,0.00,,2013-02-17 08:21:00,
2013-02-17 02:31:00,27.0,15.0,30.20,WNW,300,2.0,3.0,60,0.00,,,0.00,,2013-02-17 08:31:00,
2013-02-17 02:42:00,27.0,15.0,30.20,WNW,300,2.0,3.0,60,0.00,,,0.00,,2013-02-17 08:42:00,
2013-02-17 02:52:00,26.0,14.0,30.19,WNW,300,0.0,3.0,61,0.00,,,0.00,,2013-02-17 08:52:00,
2013-02-17 03:01:00,26.0,14.0,30.19,WNW,300,0.0,3.0,61,0.00,,,0.00,,2013-02-17 09:01:00,
2013-02-17 03:11:00,26.0,14.0,30.19,WNW,300,0.0,3.0,61,0.00,,,0.00,,2013-02-17 09:11:00,
2013-02-17 03:21:00,26.0,15.0,30.19,WNW,300,2.0,3.0,62,0.00,,,0.00,,2013-02-17 09:21:00,
2013-02-17 03:31:00,25.0,14.0,30.19,WNW,300,0.0,2.0,63,0.00,,,0.00,,2013-02-17 09:31:00,
2013-02-17 03:41:00,25.0,14.0,30.19,WNW,300,0.0,2.0,63,0.00,,,0.00,,2013-02-17 09:41:00,
2013-02-17 03:52:00,25.0,15.0,30.19,WNW,300,0.0,1.0,64,0.00,,,0.00,,2013-02-17 09:52:00,
2013-02-17 04:01:00,24.0,16.0,30.19,WNW,300,0.0,0.0,72,0.00,,,0.00,,2013-02-17 10:01:00,
2013-02-17 04:11:00,23.0,16.0,30.19,WNW,300,0.0,2.0,75,0.00,,,0.00,,2013-02-17 10:11:00,
2013-02-17 04:21:00,23.0,16.0,30.19,WNW,300,0.0,2.0,75,0.00,,,0.00,,2013-02-17 10:21:00,
2013-02-17 04:31:00,23.0,16.0,30.19,WNW,300,1.0,2.0,75,0.00,,,0.00,,2013-02-17 10:31:00,
2013-02-17 04:41:00,23.0,16.0,30.19,WNW,300,1.0,2.0,75,0.00,,,0.00,,2013-02-17 10:41:00,
2013-02-17 04:52:00,23.0,16.0,30.20,WNW,300,0.0,1.0,75,0.00,,,0.00,,2013-02-17 10:52:00,
2013-02-17 05:01:00,22.0,16.0,30.20,WNW,300,0.0,0.0,77,0.00,,,0.00,,2013-02-17 11:01:00,
2013-02-17 05:11:00,22.0,16.0,30.20,WNW,300,0.0,0.0,77,0.00,,,0.00,,2013-02-17 11:11:00,
2013-02-17 05:21:00,22.0,17.0,30.22,WNW,300,0.0,0.0,80,0.00,,,0.00,,2013-02-17 11:21:00,
2013-02-17 05:32:00,23.0,17.0,30.22,SW,233,1.0,3.0,79,0.00,,,0.00,,2013-02-17 11:32:00,
2013-02-17 05:41:00,23.0,17.0,30.22,SW,233,1.0,3.0,79,0.00,,,0.00,,2013-02-17 11:41:00,
2013-02-17 05:52:00,23.0,17.0,30.22,SW,233,3.0,4.0,76,0.00,,,0.00,,2013-02-17 11:52:00,
2013-02-17 06:03:00,23.0,16.0,30.23,SW,220,3.0,5.0,75,0.00,,,0.00,,2013-02-17 12:03:00,
2013-02-17 06:11:00,23.0,16.0,30.23,SW,220,3.0,5.0,75,0.00,,,0.00,,2013-02-17 12:11:00,
2013-02-17 06:22:00,22.0,16.0,30.23,SW,220,1.0,2.0,79,0.00,,,0.00,,2013-02-17 12:22:00,
2013-02-17 06:32:00,22.0,17.0,30.22,ESE,115,1.0,3.0,80,0.00,,,0.00,,2013-02-17 12:32:00,
2013-02-17 06:42:00,22.0,17.0,30.22,ESE,115,1.0,3.0,80,0.00,,,0.00,,2013-02-17 12:42:00,
2013-02-17 06:52:00,22.0,17.0,30.23,East,86,0.0,2.0,81,0.00,,,0.00,,2013-02-17 12:52:00,
2013-02-17 07:02:00,22.0,18.0,30.23,ENE,72,2.0,3.0,84,0.00,,,0.00,,2013-02-17 13:02:00,
2013-02-17 07:12:00,22.0,18.0,30.23,ENE,72,2.0,3.0,84,0.00,,,0.00,,2013-02-17 13:12:00,
2013-02-17 07:21:00,24.0,20.0,30.24,ENE,74,2.0,2.0,84,0.00,,,0.00,,2013-02-17 13:21:00,
2013-02-17 07:32:00,25.0,20.0,30.24,ESE,119,2.0,4.0,82,0.00,,,0.00,,2013-02-17 13:32:00,
2013-02-17 07:41:00,25.0,20.0,30.24,ESE,119,2.0,4.0,82,0.00,,,0.00,,2013-02-17 13:41:00,
2013-02-17 07:52:00,27.0,21.0,30.25,North,350,3.0,5.0,77,0.00,,,0.00,,2013-02-17 13:52:00,
2013-02-17 08:01:00,28.0,21.0,30.26,ESE,120,0.0,4.0,75,0.00,,,0.00,,2013-02-17 14:01:00,
2013-02-17 08:11:00,28.0,21.0,30.26,ESE,120,0.0,4.0,75,0.00,,,0.00,,2013-02-17 14:11:00,
2013-02-17 08:21:00,31.0,23.0,30.27,NE,44,1.0,2.0,71,0.00,,,0.00,,2013-02-17 14:21:00,
2013-02-17 08:32:00,31.0,22.0,30.27,WSW,249,1.0,4.0,69,0.00,,,0.00,,2013-02-17 14:32:00,
2013-02-17 08:42:00,31.0,22.0,30.27,WSW,249,1.0,4.0,69,0.00,,,0.00,,2013-02-17 14:42:00,
2013-02-17 08:53:00,30.0,20.0,30.27,WNW,301,5.0,5.0,67,0.00,,,0.00,,2013-02-17 14:53:00,
2013-02-17 09:01:00,30.0,21.0,30.27,SSW,193,4.0,7.0,68,0.00,,,0.00,,2013-02-17 15:01:00,
2013-02-17 09:11:00,30.0,21.0,30.27,SSW,193,4.0,7.0,68,0.00,,,0.00,,2013-02-17 15:11:00,
2013-02-17 09:21:00,32.0,22.0,30.28,South,172,2.0,3.0,66,0.00,,,0.00,,2013-02-17 15:21:00,
2013-02-17 09:31:00,33.0,23.0,30.28,North,3,3.0,5.0,65,0.00,,,0.00,,2013-02-17 15:31:00,
2013-02-17 09:41:00,33.0,23.0,30.28,North,3,3.0,5.0,65,0.00,,,0.00,,2013-02-17 15:41:00,
2013-02-17 09:52:00,34.0,22.0,30.28,North,0,1.0,8.0,61,0.00,,,0.00,,2013-02-17 15:52:00,
2013-02-17 10:01:00,35.0,23.0,30.29,NW,312,2.0,6.0,60,0.00,,,0.00,,2013-02-17 16:01:00,
2013-02-17 10:11:00,35.0,23.0,30.29,NW,312,2.0,6.0,60,0.00,,,0.00,,2013-02-17 16:11:00,
2013-02-17 10:21:00,37.0,21.0,30.29,North,0,3.0,7.0,52,0.00,,,0.00,,2013-02-17 16:21:00,
2013-02-17 10:32:00,38.0,21.0,30.29,West,266,2.0,5.0,50,0.00,,,0.00,,2013-02-17 16:32:00,
2013-02-17 10:41:00,38.0,21.0,30.29,West,266,2.0,5.0,50,0.00,,,0.00,,2013-02-17 16:41:00,
2013-02-17 10:52:00,38.0,20.0,30.29,North,0,6.0,8.0,48,0.00,,,0.00,,2013-02-17 16:52:00,
2013-02-17 11:02:00,39.0,20.0,30.29,West,267,6.0,7.0,47,0.00,,,0.00,,2013-02-17 17:02:00,
2013-02-17 11:11:00,39.0,20.0,30.29,West,267,6.0,7.0,47,0.00,,,0.00,,2013-02-17 17:11:00,
2013-02-17 11:21:00,40.0,20.0,30.27,NE,54,2.0,8.0,44,0.00,,,0.00,,2013-02-17 17:21:00,
2013-02-17 11:32:00,42.0,22.0,30.28,WNW,288,2.0,6.0,44,0.00,,,0.00,,2013-02-17 17:32:00,
2013-02-17 11:41:00,42.0,22.0,30.28,WNW,288,2.0,6.0,44,0.00,,,0.00,,2013-02-17 17:41:00,
2013-02-17 11:52:00,41.0,19.0,30.28,West,261,6.0,10.0,41,0.00,,,0.00,,2013-02-17 17:52:00,
2013-02-17 12:01:00,43.0,20.0,30.27,South,190,3.0,7.0,39,0.00,,,0.00,,2013-02-17 18:01:00,
2013-02-17 12:11:00,44.0,20.0,30.26,NNE,25,1.0,7.0,38,0.00,,,0.00,,2013-02-17 18:11:00,
2013-02-17 12:22:00,44.0,20.0,30.26,NNE,25,1.0,7.0,38,0.00,,,0.00,,2013-02-17 18:22:00,
2013-02-17 12:33:00,46.0,21.0,30.24,North,0,1.0,5.0,37,0.00,,,0.00,,2013-02-17 18:33:00,
2013-02-17 12:42:00,46.0,21.0,30.24,North,0,1.0,5.0,37,0.00,,,0.00,,2013-02-17 18:42:00,
2013-02-17 12:52:00,46.0,20.0,30.24,NW,305,4.0,6.0,35,0.00,,,0.00,,2013-02-17 18:52:00,
2013-02-17 13:01:00,46.0,21.0,30.24,SE,140,4.0,8.0,37,0.00,,,0.00,,2013-02-17 19:01:00,
2013-02-17 13:11:00,46.0,21.0,30.24,SE,140,4.0,8.0,37,0.00,,,0.00,,2013-02-17 19:11:00,
2013-02-17 13:21:00,46.0,20.0,30.24,NW,309,1.0,10.0,35,0.00,,,0.00,,2013-02-17 19:21:00,
2013-02-17 13:32:00,45.0,20.0,30.23,West,278,2.0,12.0,36,0.00,,,0.00,,2013-02-17 19:32:00,
2013-02-17 13:41:00,45.0,20.0,30.23,West,278,2.0,12.0,36,0.00,,,0.00,,2013-02-17 19:41:00,
2013-02-17 13:51:00,46.0,21.0,30.22,West,281,2.0,8.0,36,0.00,,,0.00,,2013-02-17 19:51:00,
2013-02-17 14:01:00,45.0,19.0,30.22,WNW,297,8.0,13.0,35,0.00,,,0.00,,2013-02-17 20:01:00,
2013-02-17 14:11:00,45.0,19.0,30.22,WNW,297,8.0,13.0,35,0.00,,,0.00,,2013-02-17 20:11:00,
2013-02-17 14:21:00,46.0,20.0,30.21,NW,307,7.0,12.0,35,0.00,,,0.00,,2013-02-17 20:21:00,
2013-02-17 14:32:00,46.0,19.0,30.21,SSW,201,9.0,13.0,34,0.00,,,0.00,,2013-02-17 20:32:00,
2013-02-17 14:42:00,46.0,19.0,30.21,SSW,201,9.0,13.0,34,0.00,,,0.00,,2013-02-17 20:42:00,
2013-02-17 14:52:00,47.0,20.0,30.21,West,260,7.0,13.0,34,0.00,,,0.00,,2013-02-17 20:52:00,
2013-02-17 15:01:00,47.0,20.0,30.20,North,0,1.0,11.0,34,0.00,,,0.00,,2013-02-17 21:01:00,
2013-02-17 15:11:00,47.0,20.0,30.20,North,0,1.0,11.0,34,0.00,,,0.00,,2013-02-17 21:11:00,
2013-02-17 15:21:00,48.0,20.0,30.20,North,0,3.0,10.0,33,0.00,,,0.00,,2013-02-17 21:21:00,
2013-02-17 15:31:00,47.0,21.0,30.19,NW,316,8.0,11.0,35,0.00,,,0.00,,2013-02-17 21:31:00,
2013-02-17 15:41:00,47.0,21.0,30.19,NW,316,8.0,11.0,35,0.00,,,0.00,,2013-02-17 21:41:00,
2013-02-17 15:52:00,47.0,21.0,30.19,NNE,22,5.0,10.0,36,0.00,,,0.00,,2013-02-17 21:52:00,
2013-02-17 16:01:00,47.0,23.0,30.20,SE,133,4.0,10.0,38,0.00,,,0.00,,2013-02-17 22:01:00,
2013-02-17 16:12:00,47.0,23.0,30.20,SE,133,4.0,10.0,38,0.00,,,0.00,,2013-02-17 22:12:00,
2013-02-17 16:21:00,48.0,24.0,30.19,WNW,289,9.0,9.0,38,0.00,,,0.00,,2013-02-17 22:21:00,
2013-02-17 16:32:00,47.0,22.0,30.19,WSW,245,4.0,12.0,37,0.00,,,0.00,,2013-02-17 22:32:00,
2013-02-17 16:41:00,47.0,22.0,30.19,WSW,245,4.0,12.0,37,0.00,,,0.00,,2013-02-17 22:41:00,
2013-02-17 16:52:00,48.0,27.0,30.19,SSE,158,2.0,7.0,44,0.00,,,0.00,,2013-02-17 22:52:00,
2013-02-17 17:02:00,49.0,23.0,30.19,South,170,1.0,5.0,36,0.00,,,0.00,,2013-02-17 23:02:00,
2013-02-17 17:11:00,49.0,23.0,30.19,South,170,1.0,5.0,36,0.00,,,0.00,,2013-02-17 23:11:00,
2013-02-17 17:21:00,48.0,24.0,30.19,East,99,5.0,7.0,39,0.00,,,0.00,,2013-02-17 23:21:00,
2013-02-17 17:32:00,47.0,25.0,30.19,SE,138,1.0,7.0,42,0.00,,,0.00,,2013-02-17 23:32:00,
2013-02-17 17:42:00,47.0,25.0,30.19,SE,138,1.0,7.0,42,0.00,,,0.00,,2013-02-17 23:42:00,
2013-02-17 17:52:00,45.0,24.0,30.18,SE,132,3.0,4.0,43,0.00,,,0.00,,2013-02-17 23:52:00,
2013-02-17 18:01:00,45.0,25.0,30.18,ESE,122,2.0,3.0,45,0.00,,,0.00,,2013-02-18 00:01:00,
2013-02-17 18:11:00,45.0,25.0,30.18,ESE,122,2.0,3.0,45,0.00,,,0.00,,2013-02-18 00:11:00,
2013-02-17 18:22:00,43.0,27.0,30.18,SE,133,2.0,4.0,53,0.00,,,0.00,,2013-02-18 00:22:00,
2013-02-17 18:31:00,43.0,29.0,30.18,SE,133,1.0,3.0,58,0.00,,,0.00,,2013-02-18 00:31:00,
2013-02-17 18:52:00,42.0,28.0,30.19,SE,131,1.0,3.0,57,0.00,,,0.00,,2013-02-18 00:52:00,
2013-02-17 19:01:00,41.0,28.0,30.18,SE,131,2.0,4.0,59,0.00,,,0.00,,2013-02-18 01:01:00,
2013-02-17 19:11:00,41.0,28.0,30.18,SE,131,2.0,4.0,59,0.00,,,0.00,,2013-02-18 01:11:00,
2013-02-17 19:21:00,40.0,26.0,30.19,SE,131,3.0,5.0,57,0.00,,,0.00,,2013-02-18 01:21:00,
2013-02-17 19:31:00,40.0,27.0,30.19,SE,131,3.0,4.0,59,0.00,,,0.00,,2013-02-18 01:31:00,
2013-02-17 19:41:00,40.0,27.0,30.19,SE,131,3.0,4.0,59,0.00,,,0.00,,2013-02-18 01:41:00,
2013-02-17 19:52:00,40.0,26.0,30.19,SE,145,4.0,6.0,58,0.00,,,0.00,,2013-02-18 01:52:00,
2013-02-17 20:01:00,40.0,28.0,30.20,SE,133,3.0,5.0,63,0.00,,,0.00,,2013-02-18 02:01:00,
2013-02-17 20:11:00,40.0,28.0,30.20,SE,133,3.0,5.0,63,0.00,,,0.00,,2013-02-18 02:11:00,
2013-02-17 20:21:00,39.0,25.0,30.20,SE,144,7.0,7.0,57,0.00,,,0.00,,2013-02-18 02:21:00,
2013-02-17 20:32:00,39.0,25.0,30.19,East,101,4.0,7.0,58,0.00,,,0.00,,2013-02-18 02:32:00,
2013-02-17 20:41:00,39.0,25.0,30.19,East,101,4.0,7.0,58,0.00,,,0.00,,2013-02-18 02:41:00,
2013-02-17 20:52:00,39.0,25.0,30.20,SE,146,7.0,7.0,57,0.00,,,0.00,,2013-02-18 02:52:00,
2013-02-17 21:01:00,39.0,25.0,30.20,SE,124,5.0,9.0,57,0.00,,,0.00,,2013-02-18 03:01:00,
2013-02-17 21:11:00,39.0,25.0,30.20,SE,124,5.0,9.0,57,0.00,,,0.00,,2013-02-18 03:11:00,
2013-02-17 21:21:00,39.0,25.0,30.21,SSE,152,7.0,10.0,57,0.00,,,0.00,,2013-02-18 03:21:00,
2013-02-17 21:31:00,40.0,26.0,30.22,ENE,75,6.0,11.0,58,0.00,,,0.00,,2013-02-18 03:31:00,
2013-02-17 21:42:00,40.0,26.0,30.22,ENE,75,6.0,11.0,58,0.00,,,0.00,,2013-02-18 03:42:00,
2013-02-17 21:52:00,40.0,26.0,30.22,SE,129,7.0,9.0,56,0.00,,,0.00,,2013-02-18 03:52:00,
2013-02-17 22:01:00,40.0,26.0,30.22,ESE,120,8.0,11.0,57,0.00,,,0.00,,2013-02-18 04:01:00,
2013-02-17 22:11:00,40.0,26.0,30.22,ESE,120,8.0,11.0,57,0.00,,,0.00,,2013-02-18 04:11:00,
2013-02-17 22:21:00,39.0,26.0,30.22,South,179,8.0,9.0,59,0.00,,,0.00,,2013-02-18 04:21:00,
2013-02-17 22:32:00,39.0,26.0,30.22,SSW,201,3.0,9.0,60,0.00,,,0.00,,2013-02-18 04:32:00,
2013-02-17 22:41:00,39.0,26.0,30.22,SSW,201,3.0,9.0,60,0.00,,,0.00,,2013-02-18 04:41:00,
2013-02-17 22:52:00,38.0,27.0,30.22,SE,134,5.0,7.0,64,0.00,,,0.00,,2013-02-18 04:52:00,
2013-02-17 23:01:00,38.0,26.0,30.21,ESE,109,6.0,8.0,61,0.00,,,0.00,,2013-02-18 05:01:00,
2013-02-17 23:11:00,38.0,26.0,30.21,ESE,109,6.0,8.0,61,0.00,,,0.00,,2013-02-18 05:11:00,
2013-02-17 23:21:00,39.0,27.0,30.22,SE,145,3.0,9.0,61,0.00,,,0.00,,2013-02-18 05:21:00,
2013-02-17 23:31:00,38.0,26.0,30.22,NE,36,3.0,7.0,61,0.00,,,0.00,,2013-02-18 05:31:00,
2013-02-17 23:41:00,38.0,26.0,30.22,NE,36,3.0,7.0,61,0.00,,,0.00,,2013-02-18 05:41:00,
2013-02-17 23:52:00,38.0,26.0,30.22,SE,143,5.0,8.0,61,0.00,,,0.00,,2013-02-18 05:52:00,